Date,TemperatureHighF,TemperatureAvgF,TemperatureLowF,DewpointHighF,DewpointAvgF,DewpointLowF,HumidityHigh,HumidityAvg,HumidityLow,PressureMaxIn,PressureMinIn,WindSpeedMaxMPH,WindSpeedAvgMPH,GustSpeedMaxMPH,PrecipitationSumIn
2013-12-1,58,43,31,41,35,29,97,75,43,30.21,29.90,4,1,4,0.00
2013-12-2,49,47,45,46,43,38,94,87,71,29.90,29.71,5,0,5,0.03
2013-12-3,57,51,47,52,48,45,96,91,82,29.78,29.72,2,0,2,0.04
2013-12-4,70,57,50,58,53,49,97,87,66,29.86,29.76,5,1,9,0.01
2013-12-5,72,67,62,65,62,57,93,84,75,29.89,29.78,12,3,13,0.02
2013-12-6,68,48,39,64,46,37,96,93,82,30.11,29.77,14,1,14,1.34
2013-12-7,40,38,36,38,35,33,94,88,84,30.33,30.11,5,2,5,0.01
2013-12-8,44,40,37,43,38,33,97,94,84,30.26,29.99,4,1,4,0.89
2013-12-9,53,46,41,49,44,38,98,93,81,30.06,29.92,5,1,5,0.63
2013-12-10,44,37,30,38,32,24,95,82,56,30.29,29.90,14,2,15,0.52
2013-12-11,48,36,27,35,29,25,96,78,51,30.39,30.25,6,1,6,0.01
2013-12-12,41,33,27,27,22,15,85,67,38,30.46,30.33,6,1,6,0.00
2013-12-13,46,36,25,30,25,20,92,67,39,30.35,30.05,4,0,4,0.00
2013-12-14,47,43,38,46,38,25,97,84,51,30.08,29.70,10,1,13,0.50
2013-12-15,45,37,34,43,32,28,91,81,72,30.13,29.76,15,6,15,0.00
2013-12-16,50,39,30,37,32,27,90,75,56,30.16,30.02,14,4,14,0.00
2013-12-17,57,46,36,40,34,25,91,64,44,30.15,29.90,17,6,17,0.00
2013-12-18,49,38,29,30,26,18,89,64,32,30.27,30.14,10,2,10,0.00
2013-12-19,60,41,29,34,29,20,92,67,24,30.24,30.05,7,0,7,0.00
2013-12-20,59,47,36,45,38,31,89,72,47,30.08,29.94,4,0,4,0.00
2013-12-21,73,63,51,64,55,45,95,77,68,29.94,29.65,20,6,20,0.05
2013-12-22,71,59,56,64,56,52,97,91,68,29.94,29.67,24,3,24,1.71
2013-12-23,56,44,36,54,40,27,95,83,71,30.26,29.90,15,2,15,0.07
2013-12-24,39,33,27,28,22,15,79,64,42,30.41,30.26,12,2,12,0.00
2013-12-25,46,32,22,30,22,16,90,68,45,30.40,30.24,6,1,6,0.00
2013-12-26,51,38,31,33,29,24,93,72,42,30.32,30.22,6,1,6,0.00
2013-12-27,52,37,29,36,30,24,94,77,37,30.40,30.27,4,0,4,0.00
2013-12-28,42,36,29,38,32,28,96,88,67,30.32,29.84,2,0,2,0.64
2013-12-29,47,43,40,44,41,38,97,93,86,29.95,29.76,12,2,12,0.90
2013-12-30,44,39,37,42,34,31,96,83,74,30.14,29.94,12,2,12,0.00
2013-12-31,44,35,30,32,28,24,89,76,48,30.38,30.13,10,1,10,0.00